Regional Weather Roundup
Issued by NWS Kansas City/Pleasant Hill, MO

Home | Current Version | Previous Version | Graphics & Text | Print | Product List | Glossary Off
Versions: 1 2 3 4 5 6 7 8 9 10 11 12 13 14 15 16 17 18 19 20 21 22 23 24 25 26 27 28 29 30 31 32 33 34 35 36 37 38 39 40 41 42 43 44 45 46 47 48 49 50

000
ASUS43 KEAX 182111
RWREAX

WEATHER ROUNDUP FOR EASTERN KANSAS AND NORTHWEST MISSOURI
NATIONAL WEATHER SERVICE KANSAS CITY/PLEASANT HILL MO
400 PM CDT THU SEP 18 2014

KSZ040-057-103>105-MOZ028-029-037-043-182200-
...KANSAS CITY METROPOLITAN AREA...

CITY           SKY/WX    TMP DP  RH WIND       PRES   REMARKS
K.C. INTL      CLOUDY    65  61  87 E8        30.01F
K.C. DOWNTOWN  CLOUDY    67  61  81 E9        30.00S
LEES SUMMIT    CLOUDY    66  62  87 E7        30.01S
OLATHE - IXD   CLOUDY    70  63  78 E8        29.99F
OLATHE - OJC   CLOUDY    66  62  87 NE12      29.99S
LAWRENCE       CLOUDY    68  62  81 E7        29.99F HAZE

$$

MOZ001>008-011>017-020>025-030>033-038>040-044>046-053-054-182200-
...NORTHERN AND CENTRAL MISSOURI...

CITY           SKY/WX    TMP DP  RH WIND       PRES   REMARKS
ST. JOSEPH     CLOUDY    66  59  78 E7        30.01F
MOSBY          CLOUDY    68  61  77 E5        30.01S
WHITEMAN AFB   PTSUNNY   69  62  78 E7        30.00S
CLINTON        CLOUDY    70  64  83 CALM      30.00S
SEDALIA        CLOUDY    70  62  76 E7        30.01S
WARSAW         NOT AVBL
MARSHALL       PTSUNNY   72  63  73 E10       30.02S
CHILLICOTHE      N/A     70  59  68 SE6       30.03F
MOBERLY        PTSUNNY   73  55  53 E12       30.03F
KIRKSVILLE     PTSUNNY   71  57  61 E7        30.05S

$$

MOZ041-047>049-056>058-063>065-088>090-097-182200-
...EASTERN AND SOUTHERN MISSOURI...

CITY           SKY/WX    TMP DP  RH WIND       PRES   REMARKS
ST. LOUIS INTL MOSUNNY   75  55  49 SE9       30.02F
SPIRIT OF STL  MOSUNNY   73  56  54 E9        30.01S
COLUMBIA       MOSUNNY   72  60  66 E12       30.01F
JEFFERSON CITY CLOUDY    73  59  61 E6        30.00S
MEXICO         MOSUNNY   75  63  64 E8        30.03
HANNIBAL       MOSUNNY   75  50  41 E6        30.05S
ROLLA          CLOUDY    70  60  70 SE6       30.00F
LEBANON        CLOUDY    66  61  82 S9        30.02S
OSAGE BEACH    CLOUDY    70  61  73 SE8       30.01F
SPRINGFIELD    CLOUDY    71  63  75 S10       29.99S
BRANSON        CLOUDY    72  64  78 E9        30.01F
NEVADA         MOSUNNY   77  66  69 NE10G16   29.97F
JOPLIN         PTSUNNY   76  63  64 E9        29.95F
WEST PLAINS    CLOUDY    66  60  81 NE7       30.03R

$$

IAZ060-094-KSZ022-034>040-054-083-096-NEZ052-066-093-182200-
...KANSAS...SOUTHEAST NEBRASKA AND IOWA...

CITY           SKY/WX    TMP DP  RH WIND       PRES   REMARKS
TOPEKA         CLOUDY    72  65  78 NE8       29.98F
MANHATTAN      SUNNY     80  66  62 N5        29.94F
EMPORIA        MOSUNNY   76  66  71 NE13      29.94F
CHANUTE        PTSUNNY   75  65  70 E3        29.95S
WICHITA        MOSUNNY   89  55  31 S16       29.91F
OMAHA          MOSUNNY   76  54  46 SE8       29.97F
LINCOLN        SUNNY     79  57  46 SE10      29.96F
FALLS CITY     CLOUDY    68  60  75 SE8       29.99F
LAMONI         MOSUNNY   67  58  72 VRB7      30.03F
DES MOINES     MOSUNNY   74  51  44 S10       30.03F

$$




USA.gov is the U.S. government's official web portal to all federal, state and local government web resources and services.